• In Uzbekistan
  • List of Countries
  • For 7 days
  • Water Temperature
  • Satellite Maps
  • Weather Map
  • Weather Widgets
  • user-avatar
    Login

    Hourly Weather Sydney

    Today, 24 April, Monday

    Time Temperature Precipitation Wind Pressure Humidity
    00:00 +16°C° 0.2 mm 1 mps 766 mmHg 95%
    01:00 +16°C° 0.2 mm 1 mps 765 mmHg 96%
    02:00 +15°C° 0 mm 2 mps 765 mmHg 96%
    03:00 +15°C° 0 mm 2 mps 765 mmHg 96%
    04:00 +14°C° 0 mm 2 mps 765 mmHg 97%
    05:00 +15°C° 0 mm 2 mps 765 mmHg 96%
    06:00 +15°C° 0 mm 2 mps 765 mmHg 95%
    07:00 +15°C° 0 mm 2 mps 765 mmHg 94%
    08:00 +19°C° 0.1 mm 1 mps 765 mmHg 81%
    09:00 +22°C° 0.1 mm 1 mps 765 mmHg 68%
    10:00 +26°C° 0 mm 1 mps 765 mmHg 55%
    11:00 +26°C° 0 mm 1 mps 765 mmHg 52%
    12:00 +27°C° 0 mm 1 mps 764 mmHg 48%
    13:00 +28°C° 0 mm 1 mps 763 mmHg 45%
    14:00 +27°C° 0 mm 2 mps 763 mmHg 49%
    15:00 +26°C° 0 mm 2 mps 763 mmHg 52%
    16:00 +25°C° 0 mm 3 mps 762 mmHg 60%
    17:00 +22°C° 0 mm 3 mps 763 mmHg 70%
    18:00 +20°C° 0 mm 3 mps 763 mmHg 79%
    19:00 +18°C° 0 mm 3 mps 763 mmHg 89%
    20:00 +18°C° 0 mm 3 mps 763 mmHg 90%
    21:00 +17°C° 0 mm 3 mps 763 mmHg 92%
    22:00 +17°C° 0 mm 3 mps 763 mmHg 94%
    23:00 +17°C° 0 mm 3 mps 762 mmHg 94%

    Tomorrow, 25 April, Tuesday

    Time Temperature Precipitation Wind Pressure Humidity
    00:00 +16°C° 0 mm 3 mps 762 mmHg 95%
    01:00 +15°C° 0 mm 4 mps 762 mmHg 95%
    02:00 +16°C° 0 mm 3 mps 761 mmHg 93%
    03:00 +16°C° 0 mm 3 mps 761 mmHg 92%
    04:00 +16°C° 0 mm 3 mps 761 mmHg 90%
    05:00 +15°C° 0 mm 4 mps 760 mmHg 88%
    06:00 +17°C° 0 mm 4 mps 760 mmHg 85%
    07:00 +17°C° 0 mm 4 mps 760 mmHg 83%
    08:00 +19°C° 0 mm 4 mps 760 mmHg 72%
    09:00 +22°C° 0 mm 5 mps 759 mmHg 61%
    10:00 +25°C° 0 mm 5 mps 759 mmHg 50%
    11:00 +26°C° 0 mm 5 mps 758 mmHg 48%
    12:00 +28°C° 0 mm 5 mps 757 mmHg 45%
    13:00 +29°C° 0 mm 5 mps 757 mmHg 43%
    14:00 +27°C° 1 mm 5 mps 756 mmHg 58%
    15:00 +23°C° 1 mm 5 mps 756 mmHg 72%
    16:00 +21°C° 1 mm 4 mps 756 mmHg 87%
    17:00 +20°C° 0.3 mm 5 mps 756 mmHg 87%
    18:00 +19°C° 0.3 mm 5 mps 756 mmHg 87%
    19:00 +19°C° 0.3 mm 5 mps 756 mmHg 88%
    20:00 +19°C° 0 mm 5 mps 755 mmHg 87%
    21:00 +19°C° 0 mm 5 mps 755 mmHg 87%
    22:00 +18°C° 0 mm 4 mps 755 mmHg 86%
    23:00 +18°C° 0 mm 4 mps 755 mmHg 88%

    Day after tomorrow, 26 April, Wednesday

    Time Temperature Precipitation Wind Pressure Humidity
    00:00 +17°C° 0 mm 4 mps 755 mmHg 89%
    01:00 +15°C° 0 mm 4 mps 755 mmHg 91%
    02:00 +15°C° 0 mm 4 mps 754 mmHg 91%
    03:00 +15°C° 0 mm 4 mps 754 mmHg 92%
    04:00 +15°C° 0 mm 4 mps 754 mmHg 93%
    05:00 +15°C° 0 mm 4 mps 754 mmHg 92%
    06:00 +14°C° 0 mm 4 mps 754 mmHg 91%
    07:00 +14°C° 0 mm 4 mps 754 mmHg 89%
    08:00 +17°C° 0 mm 4 mps 754 mmHg 75%
    09:00 +19°C° 0 mm 5 mps 754 mmHg 61%
    10:00 +21°C° 0 mm 6 mps 754 mmHg 47%
    11:00 +21°C° 0.1 mm 6 mps 754 mmHg 50%
    12:00 +20°C° 0.1 mm 7 mps 753 mmHg 53%
    13:00 +20°C° 0.1 mm 7 mps 753 mmHg 57%
    14:00 +18°C° 0.2 mm 8 mps 753 mmHg 53%
    15:00 +17°C° 0.2 mm 8 mps 754 mmHg 49%
    16:00 +16°C° 0.2 mm 9 mps 754 mmHg 45%
    17:00 +13°C° 0 mm 8 mps 755 mmHg 49%
    18:00 +12°C° 0 mm 8 mps 756 mmHg 54%
    19:00 +11°C° 0 mm 7 mps 757 mmHg 58%
    20:00 +10°C° 0.1 mm 7 mps 757 mmHg 61%
    21:00 +10°C° 0.1 mm 7 mps 758 mmHg 63%
    22:00 +10°C° 0.1 mm 7 mps 759 mmHg 66%
    23:00 +10°C° 0 mm 7 mps 759 mmHg 68%

    27 April, Thursday

    Time Temperature Precipitation Wind Pressure Humidity
    00:00 +9°C° 0 mm 7 mps 759 mmHg 70%
    01:00 +9°C° 0 mm 7 mps 759 mmHg 72%
    02:00 +9°C° 0 mm 7 mps 759 mmHg 72%
    03:00 +9°C° 0 mm 7 mps 759 mmHg 72%
    04:00 +8°C° 0 mm 7 mps 759 mmHg 71%
    05:00 +8°C° 0 mm 7 mps 760 mmHg 70%
    06:00 +8°C° 0 mm 7 mps 761 mmHg 68%
    07:00 +8°C° 0 mm 6 mps 761 mmHg 66%
    08:00 +10°C° 0.1 mm 7 mps 762 mmHg 60%
    09:00 +11°C° 0.1 mm 7 mps 762 mmHg 54%
    10:00 +14°C° 0.1 mm 7 mps 762 mmHg 48%
    11:00 +15°C° 0.2 mm 7 mps 762 mmHg 46%
    12:00 +16°C° 0.2 mm 7 mps 762 mmHg 45%
    13:00 +17°C° 0.2 mm 7 mps 761 mmHg 44%
    14:00 +17°C° 0.1 mm 7 mps 761 mmHg 45%
    15:00 +17°C° 0.1 mm 7 mps 762 mmHg 46%
    16:00 +17°C° 0.1 mm 7 mps 762 mmHg 47%
    17:00 +15°C° 0 mm 7 mps 762 mmHg 54%
    18:00 +12°C° 0 mm 7 mps 763 mmHg 62%
    19:00 +10°C° 0 mm 6 mps 764 mmHg 69%
    20:00 +10°C° 0.1 mm 7 mps 764 mmHg 69%
    21:00 +10°C° 0.1 mm 7 mps 765 mmHg 68%
    22:00 +10°C° 0.1 mm 7 mps 765 mmHg 68%
    23:00 +9°C° 0.1 mm 7 mps 765 mmHg 67%

    28 April, Friday

    Time Temperature Precipitation Wind Pressure Humidity
    00:00 +9°C° 0.1 mm 7 mps 765 mmHg 67%
    01:00 +8°C° 0.1 mm 7 mps 765 mmHg 66%
    02:00 +8°C° 0 mm 6 mps 765 mmHg 66%
    03:00 +7°C° 0 mm 6 mps 765 mmHg 66%
    04:00 +7°C° 0 mm 6 mps 765 mmHg 66%
    05:00 +6°C° 0 mm 5 mps 765 mmHg 66%
    06:00 +6°C° 0 mm 5 mps 766 mmHg 67%
    07:00 +6°C° 0 mm 5 mps 766 mmHg 67%
    08:00 +9°C° 0 mm 5 mps 766 mmHg 59%
    09:00 +12°C° 0 mm 4 mps 766 mmHg 52%
    10:00 +15°C° 0 mm 4 mps 766 mmHg 44%
    11:00 +17°C° 0 mm 4 mps 765 mmHg 40%
    12:00 +19°C° 0 mm 3 mps 765 mmHg 36%
    13:00 +20°C° 0 mm 3 mps 764 mmHg 32%
    14:00 +20°C° 0 mm 2 mps 764 mmHg 36%
    15:00 +20°C° 0 mm 2 mps 764 mmHg 39%
    16:00 +20°C° 0 mm 2 mps 763 mmHg 42%
    17:00 +16°C° 0 mm 1 mps 764 mmHg 53%
    18:00 +13°C° 0 mm 1 mps 764 mmHg 64%
    19:00 +10°C° 0 mm 1 mps 764 mmHg 75%
    20:00 +11°C° 0 mm 1 mps 764 mmHg 71%
    21:00 +10°C° 0 mm 2 mps 764 mmHg 67%
    22:00 +12°C° 0 mm 2 mps 765 mmHg 63%
    23:00 +10°C° 0 mm 2 mps 764 mmHg 67%

    29 April, Saturday

    Time Temperature Precipitation Wind Pressure Humidity
    00:00 +10°C° 0 mm 3 mps 764 mmHg 71%
    01:00 +9°C° 0 mm 3 mps 763 mmHg 74%
    02:00 +9°C° 0 mm 3 mps 763 mmHg 78%
    03:00 +9°C° 0 mm 3 mps 763 mmHg 82%
    04:00 +8°C° 0 mm 4 mps 762 mmHg 86%
    05:00 +8°C° 0 mm 4 mps 762 mmHg 87%
    06:00 +8°C° 0 mm 4 mps 762 mmHg 88%
    07:00 +8°C° 0 mm 4 mps 762 mmHg 89%
    08:00 +12°C° 0 mm 4 mps 762 mmHg 77%
    09:00 +14°C° 0 mm 4 mps 762 mmHg 66%
    10:00 +17°C° 0 mm 5 mps 762 mmHg 54%
    11:00 +19°C° 0 mm 5 mps 761 mmHg 50%
    12:00 +20°C° 0 mm 5 mps 760 mmHg 47%
    13:00 +21°C° 0 mm 5 mps 760 mmHg 43%
    14:00 +21°C° 0 mm 5 mps 760 mmHg 45%
    15:00 +20°C° 0 mm 5 mps 760 mmHg 47%
    16:00 +20°C° 0 mm 4 mps 759 mmHg 49%
    17:00 +18°C° 0 mm 4 mps 760 mmHg 56%
    18:00 +15°C° 0 mm 5 mps 760 mmHg 63%
    19:00 +13°C° 0 mm 5 mps 761 mmHg 70%
    20:00 +14°C° 0.1 mm 6 mps 761 mmHg 69%
    21:00 +14°C° 0.1 mm 7 mps 762 mmHg 68%
    22:00 +13°C° 0.1 mm 8 mps 762 mmHg 67%
    23:00 +13°C° 0 mm 8 mps 763 mmHg 67%
    Show more